Location: Caltech
(34.1382°N, 118.1253°W)
Time: 05:28:13
(UTC-07:00)

CZ-4B DEB - Visible Passes

Search period start: 29 March 2015 00:00
Search period end: 08 April 2015 00:00
Orbit: 843 x 863 km, 98.9° (Epoch: 29 March)

Date Brightness Start Highest point End Pass type
(mag) Time Alt. Az. Time Alt. Az. Time Alt. Az.
29 Mar 4.9 03:59:02 10° NNE 04:04:17 50° E 04:04:17 50° E visible
29 Mar 5.6 05:40:58 10° NNW 05:44:44 19° WNW 05:46:21 16° W visible
30 Mar 5.3 03:48:05 10° NNE 03:53:09 39° E 03:53:09 39° E visible
30 Mar 5.3 05:29:23 10° NNW 05:33:42 23° WNW 05:35:13 21° W visible
31 Mar 5.7 03:37:13 10° NE 03:41:56 30° E 03:42:01 30° E visible
31 Mar 5.1 05:17:55 10° N 05:22:38 29° WNW 05:24:04 26° W visible
01 Apr 6.1 03:26:27 10° NE 03:30:41 24° E 03:30:52 24° E visible
01 Apr 4.7 05:06:33 10° N 05:11:34 37° WNW 05:12:56 32° WSW visible
02 Apr 6.4 03:15:51 10° NE 03:19:25 18° E 03:19:44 18° E visible
02 Apr 4.4 04:55:14 10° N 05:00:29 47° WNW 05:01:47 39° WSW visible
03 Apr 6.7 03:05:32 10° ENE 03:08:08 14° E 03:08:35 14° E visible
03 Apr 4.2 04:43:59 10° N 04:49:23 61° WNW 04:50:39 48° SW visible
04 Apr 6.9 02:56:16 10° E 02:56:48 10° E 02:57:26 10° E visible
04 Apr 4.0 04:32:47 10° N 04:38:16 78° WNW 04:39:30 54° SSW visible
05 Apr 4.1 04:21:38 10° NNE 04:27:07 83° ESE 04:28:21 56° S visible
05 Apr 6.1 06:05:33 10° NW 06:07:15 11° WNW 06:08:35 10° WNW visible
06 Apr 4.4 04:10:32 10° NNE 04:15:58 65° E 04:17:12 50° SSE visible
06 Apr 5.9 05:53:15 10° NNW 05:56:14 14° WNW 05:58:56 10° W visible
07 Apr 4.9 03:59:30 10° NNE 04:04:48 50° E 04:06:02 42° SE visible
07 Apr 5.6 05:41:27 10° NNW 05:45:12 18° WNW 05:48:06 12° WSW visible
